Pembrey Sands, United Kingdom

11:16 PM BST on October 21, 2017 (GMT +0100)
Pembrey Sands

Weather History for EGOP - April, 2013

Change the Weather History Date:

Tuesday, April 30, 2013

  Actual Average Record
Temperature  
Mean Temperature 45 °F -  
Max Temperature 59 °F - - ()
Min Temperature 31 °F - - ()
Degree Days  
Heating Degree Days 20    
Moisture  
Dew Point 37 °F    
Average Humidity 72    
Maximum Humidity 100    
Minimum Humidity 33    
Precipitation  
Precipitation 0.01 in - - ()
Sea Level Pressure  
Sea Level Pressure 30.28 in    
Wind  
Wind Speed 7 mph ()    
Max Wind Speed 17 mph    
Max Gust Speed -    
Visibility 8.5 miles    
Events      
T = Trace of Precipitation, MM = Missing Value Source: Averaged Metar Reports

Daily Weather History Graph

Daily Weather History Graph

Search for Another Location

Airport or City:

Trip Planner

Search our weather history database for the weather conditions in past years. The results will help you decide how hot, cold, wet, or windy it might be!

Date:

Astronomy

Apr. 30, 2013 Rise Set
Actual Time 5:50 AM BST 8:40 PM BST
Civil Twilight 5:12 AM BST 9:18 PM BST
Nautical Twilight 4:22 AM BST 10:08 PM BST
Astronomical Twilight 3:21 AM BST 11:10 PM BST
Moon 1:00 AM BST (4/30) 9:54 AM BST (4/30)
Length of Visible Light 16h 06m
Length of Day
14h 49m
Waning Gibbous, 72% of the Moon is Illuminated
Apr 30
Waning Gibbous
May 2
Last Quarter
May 10
New
May 18
First Quarter
May 25
Full

Hourly Weather History & Observations

Time (BST) Temp. Windchill Dew Point Humidity Pressure Visibility Wind Dir Wind Speed Gust Speed Precip Events Conditions
12:50 AM 34 °F - 32 °F 90% 30.26 in 17 mi NNW 3.5 mph - -  
12:50 AM 33.8 °F 30.8 °F 32.0 °F 93% 30.24 in 6.2 mi NNW 3.5 mph - N/A   Unknown
1:50 AM 32.0 °F 27.5 °F 32.0 °F 100% 30.24 in 6.2 mi North 4.6 mph - N/A   Unknown
2:50 AM 35.6 °F 31.7 °F 35.6 °F 100% 30.27 in 6.2 mi North 4.6 mph - N/A   Unknown
3:50 AM 38 °F - 37 °F 96% 30.27 in 16 mi North 9.2 mph - -  
3:50 AM 37.4 °F 30.8 °F 37.4 °F 100% 30.27 in 6.2 mi North 9.2 mph - N/A   Unknown
4:50 AM 35.6 °F 31.7 °F 33.8 °F 93% 30.27 in 6.2 mi NNE 4.6 mph - N/A   Unknown
5:50 AM 39.2 °F 33.0 °F 37.4 °F 93% 30.27 in 6.2 mi North 9.2 mph - N/A   Unknown
6:50 AM 39 °F - 38 °F 93% 30.30 in 12 mi NNE 5.8 mph - -  
6:50 AM 39.2 °F 35.0 °F 37.4 °F 93% 30.30 in 6.2 mi NNE 5.8 mph - N/A   Unknown
7:50 AM 42.8 °F 39.3 °F 41.0 °F 93% 30.30 in 6.2 mi North 5.8 mph - N/A   Unknown
8:50 AM 48.2 °F - 41.0 °F 76% 30.30 in 6.2 mi NNE 11.5 mph - N/A   Partly Cloudy
9:50 AM 50 °F - 38 °F 53% 30.32 in 17 mi NNE 13.8 mph - -  
9:50 AM 50.0 °F - 37.4 °F 62% 30.30 in 6.2 mi NNE 13.8 mph - N/A   Partly Cloudy
10:50 AM 51.8 °F - 35.6 °F 54% 30.33 in 6.2 mi North 10.4 mph - N/A   Partly Cloudy
11:50 AM 53.6 °F - 33.8 °F 47% 30.30 in 6.2 mi North 10.4 mph - N/A   Partly Cloudy
12:50 PM 55 °F - 34 °F 33% 30.32 in 19 mi NNE 9.2 mph - -  
12:50 PM 55.4 °F - 33.8 °F 44% 30.30 in 6.2 mi NNE 9.2 mph - N/A   Partly Cloudy
1:50 PM 55.4 °F - 33.8 °F 44% 30.30 in 6.2 mi NNW 11.5 mph - N/A   Partly Cloudy
2:50 PM 57.2 °F - 35.6 °F 44% 30.27 in 6.2 mi NNW 13.8 mph - N/A   Partly Cloudy
3:50 PM 57.2 °F - 39.2 °F 51% 30.27 in 6.2 mi North 11.5 mph - N/A   Scattered Clouds
4:50 PM 59.0 °F - 41.0 °F 51% 30.24 in 6.2 mi NNW 15.0 mph - N/A   Scattered Clouds
5:50 PM 55.4 °F - 42.8 °F 63% 30.24 in 6.2 mi NNW 17.3 mph - N/A   Partly Cloudy
6:50 PM 54 °F - 41 °F 51% 30.27 in 17 mi North 15.0 mph - -  
6:50 PM 53.6 °F - 41.0 °F 62% 30.27 in 6.2 mi North 15.0 mph - N/A   Unknown
7:50 PM 50.0 °F - 39.2 °F 66% 30.27 in 6.2 mi North 12.7 mph - N/A   Unknown
8:50 PM 46.4 °F 44.3 °F 37.4 °F 71% 30.30 in 6.2 mi NNE 4.6 mph - N/A   Unknown
9:50 PM 44 °F - 37 °F 70% 30.32 in 18 mi North 8.1 mph - -  
9:50 PM 44.6 °F 40.2 °F 37.4 °F 76% 30.30 in 6.2 mi North 8.1 mph - N/A   Unknown
10:50 PM 42.8 °F 41.1 °F 35.6 °F 76% 30.30 in 6.2 mi NE 3.5 mph - N/A   Unknown
11:50 PM 37.4 °F 34.9 °F 33.8 °F 87% 30.30 in 6.2 mi ENE 3.5 mph - N/A   Unknown